Date String (YYYY-MM-DD hh:mm:ss) UTC,Instrument flags,Ambient pressure (hPa),Sample flow (lpm),Bypass flow (lpm),Sample temperature (°C),Ambient temperature (°C),ASC tube jacket temperature (°C),LED temperature (°C),Box temperature (°C),Sample RH (%),Span deviation,Mass concentration (μg/m³),Mass concentration (μg/m³),Mass concentration (μg/m³)
DateTimeUTC,F1_M11,P_M11,Q1_M11,Q2_M11,T1_M11,T2_M11,T3_M11,T4_M11,T5_M11,U1_M11,ZSPAN_M11,X2_M11,X0_M11,X1_M11
2023-03-10 12:00:00,,0820.7,5.01,0.00,21.7,20.8,00.0,30.5,23.3,16.4,-000.9,0011.04,0015.67,0010.62
2023-03-10 12:01:00,,0820.8,5.00,0.00,21.7,20.5,00.0,30.5,23.2,16.4,-000.9,0011.03,0015.68,0010.62
2023-03-10 12:02:00,,0820.9,5.00,0.00,21.7,20.3,00.0,30.5,23.2,16.4,-000.9,0010.98,0015.27,0010.61
2023-03-10 12:03:00,,0820.9,5.00,0.00,21.7,20.1,00.0,30.5,23.2,16.4,-000.9,0010.97,0014.81,0010.61
2023-03-10 12:04:00,,0821.0,5.00,0.00,21.7,20.0,00.0,30.5,23.2,16.4,-001.1,0011.00,0014.85,0010.63
2023-03-10 12:05:00,,0820.9,5.00,0.00,21.6,19.9,00.0,30.5,23.2,16.4,-001.0,0011.02,0014.89,0010.64
2023-03-10 12:06:00,,0820.8,5.01,0.00,21.6,19.9,00.0,30.5,23.2,16.4,-001.3,0011.05,0014.91,0010.69
2023-03-10 12:07:00,,0820.6,5.00,0.00,21.6,19.8,00.0,30.4,23.1,16.4,-001.3,0011.06,0014.99,0010.72
2023-03-10 12:08:00,,0820.6,5.00,0.00,21.6,19.9,00.0,30.4,23.1,16.4,-001.1,0011.12,0015.17,0010.76
2023-03-10 12:09:00,,0820.6,4.99,0.00,21.6,21.0,00.0,30.4,23.4,16.4,-001.1,0011.14,0015.16,0010.79
2023-03-10 12:10:00,,0820.7,5.02,0.00,21.8,22.1,00.0,30.4,23.7,16.3,-001.0,0011.12,0014.35,0010.79
2023-03-10 12:11:00,,0820.7,4.99,0.00,21.9,22.6,00.0,30.5,23.8,16.1,-001.1,0011.10,0014.24,0010.79
2023-03-10 12:12:00,,0820.7,5.03,0.00,21.9,21.9,00.0,30.5,23.7,16.1,-001.0,0011.08,0014.44,0010.78
2023-03-10 12:13:00,,0820.6,4.99,0.00,21.8,21.2,00.0,30.5,23.5,16.2,-001.2,0011.09,0014.63,0010.76
2023-03-10 12:14:00,,0820.6,5.00,0.00,21.8,20.7,00.0,30.5,23.3,16.2,-001.1,0011.11,0014.68,0010.77
2023-03-10 12:15:00,,0820.6,5.00,0.00,21.7,20.3,00.0,30.5,23.2,16.3,-000.9,0011.08,0014.64,0010.74
2023-03-10 12:16:00,,0820.6,5.01,0.00,21.6,19.9,00.0,30.5,23.1,16.3,-000.9,0011.04,0014.56,0010.71
2023-03-10 12:17:00,,0820.4,5.00,0.00,21.6,19.6,00.0,30.5,23.0,16.4,-000.7,0011.00,0014.97,0010.65
2023-03-10 12:18:00,,0820.2,5.02,0.00,21.5,19.4,00.0,30.4,22.8,16.4,-000.5,0010.94,0015.11,0010.61
2023-03-10 12:19:00,,0820.2,5.00,0.00,21.5,20.4,00.0,30.4,23.1,16.4,-000.6,0010.87,0014.89,0010.56
2023-03-10 12:20:00,,0820.3,4.95,0.00,21.6,21.6,00.0,30.4,23.4,16.3,-000.7,0010.86,0014.89,0010.54
2023-03-10 12:21:00,,0820.4,4.97,0.00,21.8,22.5,00.0,30.4,23.8,16.1,-000.6,0010.87,0015.55,0010.52
2023-03-10 12:22:00,,0820.3,4.97,0.00,21.9,22.3,00.0,30.5,23.7,16.1,-000.6,0010.83,0015.48,0010.49
2023-03-10 12:23:00,,0820.2,5.00,0.00,21.8,21.4,00.0,30.5,23.4,16.1,-000.8,0010.83,0015.29,0010.48
2023-03-10 12:24:00,,0820.2,5.00,0.00,21.7,20.8,00.0,30.5,23.2,16.1,-000.9,0010.80,0014.99,0010.48
2023-03-10 12:25:00,,0820.2,5.01,0.00,21.7,20.3,00.0,30.5,23.1,16.2,-001.0,0010.75,0014.94,0010.45
2023-03-10 12:26:00,,0820.2,5.00,0.00,21.6,19.9,00.0,30.5,22.9,16.2,-001.2,0010.72,0014.96,0010.41
2023-03-10 12:27:00,,0820.2,4.99,0.00,21.5,19.6,00.0,30.5,22.9,16.3,-001.1,0010.69,0014.96,0010.38
2023-03-10 12:28:00,,0820.2,5.01,0.00,21.4,19.3,00.0,30.4,22.8,16.4,-001.1,0010.72,0014.85,0010.38
2023-03-10 12:29:00,,0820.2,5.01,0.00,21.4,19.1,00.0,30.4,22.7,16.4,-001.5,0010.71,0014.23,0010.36
2023-03-10 12:30:00,,0820.3,5.01,0.00,21.4,20.0,00.0,30.3,22.9,16.4,-001.7,0010.76,0014.44,0010.37
2023-03-10 12:31:00,,0820.4,5.00,0.00,21.5,21.5,00.0,30.3,23.3,16.3,-001.8,0010.74,0014.46,0010.36
2023-03-10 12:32:00,,0820.6,5.03,0.00,21.7,22.4,00.0,30.4,23.6,16.2,-001.9,0010.71,0013.92,0010.35
2023-03-10 12:33:00,,0820.6,5.02,0.00,21.7,22.2,00.0,30.4,23.6,16.1,-001.6,0010.71,0013.73,0010.36
2023-03-10 12:34:00,,0820.4,5.00,0.00,21.8,21.7,00.0,30.4,23.5,16.1,-001.3,0010.72,0013.72,0010.36
2023-03-10 12:35:00,,0820.0,5.01,0.00,21.8,21.3,00.0,30.5,23.5,16.0,-001.0,0010.74,0013.74,0010.38
2023-03-10 12:36:00,,0819.9,5.00,0.00,21.8,21.0,00.0,30.5,23.4,16.0,-000.9,0010.78,0013.78,0010.41
2023-03-10 12:37:00,,0819.9,5.00,0.00,21.8,20.7,00.0,30.5,23.4,16.1,-000.8,0010.82,0013.92,0010.45
2023-03-10 12:38:00,,0819.9,5.00,0.00,21.7,20.5,00.0,30.5,23.4,16.1,-001.2,0010.84,0014.23,0010.46
2023-03-10 12:39:00,,0819.9,5.00,0.00,21.7,20.3,00.0,30.5,23.3,16.1,-001.3,0010.83,0014.16,0010.48
2023-03-10 12:40:00,,0820.0,4.99,0.00,21.7,20.0,00.0,30.5,23.3,16.1,-001.1,0010.89,0014.20,0010.55
2023-03-10 12:41:00,,0820.2,5.01,0.00,21.6,19.9,00.0,30.5,23.2,16.1,-001.1,0010.94,0014.26,0010.63
2023-03-10 12:42:00,,0820.2,5.00,0.00,21.6,19.7,00.0,30.4,23.1,16.1,-001.0,0011.03,0014.32,0010.72
2023-03-10 12:43:00,,0820.2,5.01,0.00,21.6,20.1,00.0,30.4,23.2,16.2,-001.1,0011.12,0014.50,0010.79
2023-03-10 12:44:00,,0820.2,5.01,0.00,21.7,21.5,00.0,30.4,23.5,16.1,-001.2,0011.20,0014.66,0010.85
2023-03-10 12:45:00,,0820.2,4.98,0.00,21.8,22.7,00.0,30.4,23.8,16.0,-001.5,0011.26,0014.76,0010.90
2023-03-10 12:46:00,,0820.2,5.00,0.00,22.0,22.8,00.0,30.5,23.9,15.9,-001.6,0011.28,0014.95,0010.93
2023-03-10 12:47:00,,0820.2,5.00,0.00,22.0,22.2,00.0,30.5,23.8,15.8,-001.5,0011.34,0015.08,0010.98
2023-03-10 12:48:00,,0820.2,5.01,0.00,22.0,21.8,00.0,30.6,23.8,15.8,-001.6,0011.38,0014.95,0011.01
2023-03-10 12:49:00,,0820.2,4.98,0.00,22.0,21.4,00.0,30.6,23.7,15.8,-001.4,0011.45,0014.77,0011.07
2023-03-10 12:50:00,,0820.2,4.99,0.00,22.0,21.1,00.0,30.6,23.7,15.9,-001.2,0011.51,0014.83,0011.14
2023-03-10 12:51:00,,0820.2,5.01,0.00,22.0,20.9,00.0,30.6,23.6,15.9,-001.0,0011.54,0014.88,0011.16
2023-03-10 12:52:00,,0820.2,5.01,0.00,21.9,20.7,00.0,30.6,23.6,15.9,-000.6,0011.51,0014.71,0011.14
2023-03-10 12:53:00,,0820.1,5.00,0.00,21.9,20.6,00.0,30.6,23.5,16.0,-000.5,0011.51,0014.70,0011.13
2023-03-10 12:54:00,,0820.0,5.00,0.00,21.9,20.5,00.0,30.6,23.5,16.0,-000.5,0011.51,0014.76,0011.14
2023-03-10 12:55:00,,0820.1,5.00,0.00,21.9,20.4,00.0,30.6,23.5,16.0,-000.7,0011.52,0014.95,0011.16
2023-03-10 12:56:00,,0820.2,5.01,0.00,21.9,20.3,00.0,30.6,23.5,16.0,-000.7,0011.51,0014.90,0011.16
2023-03-10 12:57:00,,0820.1,4.99,0.00,21.9,20.2,00.0,30.6,23.5,16.0,-000.9,0011.51,0015.04,0011.15
2023-03-10 12:58:00,,0819.9,4.99,0.00,21.8,20.1,00.0,30.6,23.4,16.0,-001.0,0011.50,0015.06,0011.15
2023-03-10 12:59:00,,0819.9,5.01,0.00,21.8,20.3,00.0,30.6,23.4,16.1,-000.9,0011.51,0015.08,0011.18
